TDRS 7

Last updated on July 6, 2021, 3:26 p.m. UTC

1 23613U 95035B   21186.95096925 -.00000201  00000-0  00000+0 0  9993
2 23613  14.0972   1.3175 0029951  47.3958 302.6416  1.00273505 95031
UTC
Height (km)
Latitude
Longitude
Inclination
Orbital Period
UTC large
Height (km)
Speed (km/s)
/
Latitude / Longitude
Inclination (degrees)
Orbital Period (minutes)
Azimuth
Elevation
Range (km)
Doppler Factor
iOS Compass Heading
iOS Angle